Date,TemperatureHighF,TemperatureAvgF,TemperatureLowF,DewpointHighF,DewpointAvgF,DewpointLowF,HumidityHigh,HumidityAvg,HumidityLow,PressureMaxIn,PressureMinIn,WindSpeedMaxMPH,WindSpeedAvgMPH,GustSpeedMaxMPH,PrecipitationSumIn
2013-1-1,27.9,21.6,13.2,21.4,14.0,7.6,84,73,58,30.13,30.00,12,3,13,0.00
2013-1-2,25.4,20.8,11.7,20.1,16.0,8.3,89,81,76,30.18,30.06,13,3,14,0.00
2013-1-3,29.4,21.9,12.1,25.3,17.1,6.1,89,82,75,30.16,30.06,15,4,16,0.00
2013-1-4,29.0,25.5,20.7,23.8,20.1,16.3,85,80,68,30.17,30.03,23,8,23,0.00
2013-1-5,33.0,26.7,15.2,30.4,22.9,12.8,94,86,72,30.25,30.00,14,3,15,0.00
2013-1-6,34.9,33.1,31.5,32.3,29.5,25.7,92,86,77,30.24,29.89,17,5,18,0.00
2013-1-7,34.7,30.6,27.8,26.3,24.6,22.4,83,78,70,30.35,30.11,19,5,19,0.00
2013-1-8,36.7,28.6,19.4,28.2,24.2,17.5,93,84,71,30.23,30.13,12,3,12,0.00
2013-1-9,45.8,38.4,28.8,34.6,29.3,24.8,89,71,48,30.41,30.01,30,7,30,0.00
2013-1-10,37.9,31.6,21.3,32.7,27.3,19.3,95,84,71,30.53,30.12,19,4,19,0.11
2013-1-11,56.7,44.2,34.4,51.5,41.9,32.6,97,92,78,30.11,29.73,17,5,17,0.65
2013-1-12,59.9,50.6,45.6,51.0,47.0,43.7,96,88,70,29.89,29.76,13,3,13,0.10
2013-1-13,47.6,37.0,28.9,45.4,35.2,25.8,95,93,88,30.02,29.67,21,5,21,0.78
2013-1-14,28.9,22.5,15.4,25.7,18.5,13.3,92,84,78,30.42,30.02,21,5,22,0.00
2013-1-15,28.3,20.5,11.1,21.8,16.6,8.8,93,85,72,30.43,30.13,8,1,8,0.00
2013-1-16,36.7,27.7,17.5,28.0,20.2,15.6,93,75,47,30.13,29.80,21,5,24,0.00
2013-1-17,36.4,29.8,18.9,29.1,21.7,9.8,88,72,52,30.28,29.94,24,6,24,0.00
2013-1-18,35.2,26.0,15.0,24.6,17.2,9.6,82,69,60,30.41,29.96,25,6,25,0.00
2013-1-19,47.9,41.3,35.2,35.9,30.8,24.6,73,66,57,29.96,29.56,27,7,27,0.00
2013-1-20,43.2,22.1,16.4,35.4,12.0,5.4,74,65,51,30.16,29.55,38,11,39,0.00
2013-1-21,17.6,13.2,4.6,13.4,8.4,0.8,89,81,67,30.12,29.95,21,6,21,0.00
2013-1-22,11.6,4.0,-2.2,4.4,-2.1,-7.3,85,75,59,30.30,30.11,18,4,18,0.00
2013-1-23,17.0,9.9,2.6,9.7,4.7,-0.8,88,79,66,30.31,30.07,14,2,14,0.00
2013-1-24,19.2,11.2,5.2,9.4,4.1,-0.8,88,74,46,30.59,30.11,10,2,10,0.00
2013-1-25,19.9,16.8,11.9,17.5,12.4,3.8,90,83,67,30.49,30.00,10,2,12,0.05
2013-1-26,25.6,21.6,14.8,19.3,16.4,11.0,91,80,66,30.43,30.03,14,3,14,0.00
2013-1-27,30.1,21.1,11.5,28.1,16.6,8.1,93,83,68,30.46,30.09,17,4,17,0.18
2013-1-28,46.7,38.5,30.1,45.9,37.4,28.3,97,96,93,30.10,29.84,12,3,14,0.20
2013-1-29,58.9,48.2,35.7,55.6,46.9,34.7,97,96,89,29.97,29.40,23,6,28,0.86
2013-1-30,61.7,49.0,30.4,58.0,46.6,24.1,97,91,77,29.40,29.06,36,7,36,0.48
2013-1-31,30.3,21.1,15.1,24.0,16.1,12.2,91,81,67,29.88,29.24,33,10,33,0.00
2013-2-1,16.7,12.9,7.9,12.7,8.1,2.0,90,81,69,30.27,29.88,23,6,23,0.00
2013-2-2,23.4,16.0,5.6,19.6,12.2,2.3,89,85,79,30.22,29.93,14,3,14,0.02
2013-2-3,21.6,13.6,2.1,17.3,9.2,-1.5,88,83,73,30.02,29.85,20,3,21,0.00
2013-2-4,22.8,19.2,15.3,19.1,16.3,12.8,91,88,84,30.02,29.85,8,1,8,0.03
2013-2-5,28.0,19.7,3.6,26.0,16.5,0.1,93,87,75,29.95,29.80,16,3,16,0.02
2013-2-6,34.1,23.0,8.2,23.5,15.5,4.8,89,73,53,30.27,29.95,16,2,16,0.00
2013-2-7,38.0,29.7,23.6,30.3,24.2,16.2,90,80,71,30.25,29.80,18,5,18,0.04
2013-2-8,30.4,26.2,15.8,28.6,22.4,12.7,94,85,69,30.33,29.75,21,5,22,0.14
2013-2-9,30.1,20.1,5.9,20.8,15.1,2.4,90,81,62,30.43,30.26,11,2,11,0.00
2013-2-10,40.4,30.7,20.2,38.3,26.4,18.3,92,84,69,30.25,29.66,17,5,18,0.15
2013-2-11,44.5,37.0,30.7,43.1,31.4,25.1,95,80,70,29.85,29.52,34,11,36,0.05
2013-2-12,31.9,29.9,26.9,25.3,24.0,21.6,81,78,73,30.02,29.85,24,7,24,0.00
2013-2-13,40.3,30.8,25.7,28.0,24.6,21.5,88,78,59,29.90,29.70,11,2,11,0.00
2013-2-14,39.8,34.6,29.9,35.0,30.6,27.3,92,85,73,29.83,29.64,26,6,26,0.00
2013-2-15,33.2,27.1,20.0,29.4,19.4,13.7,91,73,57,30.10,29.83,18,5,18,0.00
2013-2-16,25.0,19.7,13.7,18.9,14.6,10.4,92,81,61,30.08,29.97,18,4,18,0.02
2013-2-17,25.0,16.5,9.7,11.6,9.1,6.5,90,74,50,30.19,30.05,16,3,17,0.00
2013-2-18,47.4,32.8,15.3,39.7,24.0,9.0,85,70,58,30.19,29.56,22,6,22,0.05
2013-2-19,44.1,26.7,16.7,40.5,22.7,12.2,93,84,72,29.92,29.38,29,11,30,0.25
2013-2-20,21.5,18.8,15.2,16.0,12.5,8.5,89,76,66,30.24,29.92,25,8,25,0.00
2013-2-21,25.3,22.1,20.3,18.5,16.6,14.7,85,79,73,30.35,30.21,17,5,17,0.00
2013-2-22,33.2,26.7,20.9,32.1,24.6,17.1,96,92,85,30.22,29.86,22,6,23,0.09
2013-2-23,32.7,29.0,23.9,30.1,22.1,18.6,90,76,64,29.90,29.84,16,5,16,0.00
2013-2-24,34.2,27.9,21.8,27.8,23.1,18.0,92,82,70,30.13,29.88,18,4,19,0.00
2013-2-25,40.1,29.2,15.3,28.7,22.6,12.4,93,77,60,30.21,30.05,10,2,10,0.00
2013-2-26,33.5,31.1,26.9,32.0,27.2,21.3,96,85,74,30.08,29.44,24,7,24,0.83
2013-2-27,35.2,33.7,32.8,33.3,32.3,31.5,96,94,91,29.54,29.40,10,2,10,0.24
2013-2-28,36.9,33.2,29.8,33.2,30.7,26.0,96,90,80,29.92,29.51,19,4,19,0.02
2013-3-1,29.8,26.1,24.5,26.1,21.5,19.2,87,82,78,30.08,29.92,15,6,15,0.00
2013-3-2,25.3,23.7,20.7,20.6,19.0,16.4,87,82,78,30.07,30.03,14,4,14,0.00
2013-3-3,29.5,22.9,17.5,17.1,15.6,11.8,86,74,55,30.05,29.98,17,4,18,0.00
2013-3-4,36.1,23.5,11.3,20.9,15.2,7.9,90,72,42,30.14,30.04,8,1,8,0.00
2013-3-5,33.3,26.5,19.8,26.4,21.5,16.6,91,81,69,30.10,29.78,18,7,19,0.00
2013-3-6,37.4,31.9,26.1,29.4,26.8,22.5,88,81,72,30.18,29.81,16,5,16,0.00
2013-3-7,36.6,32.9,27.7,30.0,26.4,20.9,90,77,60,30.36,30.17,14,3,14,0.00
2013-3-8,43.6,30.4,18.4,26.8,22.5,16.0,93,74,50,30.47,30.36,8,1,9,0.00
2013-3-9,42.8,33.9,22.6,34.3,28.5,20.3,94,81,64,30.38,30.00,17,4,17,0.00
2013-3-10,60.5,49.1,34.9,46.9,39.1,31.7,88,69,57,30.00,29.74,17,5,27,0.00
2013-3-11,56.6,51.5,48.4,48.2,46.1,41.9,94,82,59,29.75,29.45,22,7,22,0.30
2013-3-12,36.6,33.2,29.4,32.5,28.9,25.0,90,84,74,29.89,29.63,17,6,22,0.01
2013-3-13,31.1,27.9,24.0,27.7,21.2,15.9,93,76,58,30.18,29.84,25,8,25,0.00
2013-3-14,40.4,30.4,20.8,24.3,19.8,15.8,82,65,47,30.25,30.06,16,5,16,0.00
2013-3-15,42.9,35.3,31.4,34.9,30.3,22.4,95,82,67,30.07,29.79,15,4,15,0.05
2013-3-16,32.9,29.4,27.6,31.7,27.1,24.0,96,91,85,30.02,29.70,15,4,15,0.00
2013-3-17,31.9,25.9,19.4,24.7,18.5,14.8,88,74,56,30.23,30.01,17,5,18,0.03
2013-3-18,34.8,29.7,22.8,33.4,26.8,17.6,96,89,78,30.15,29.52,25,8,26,0.12
2013-3-19,34.8,26.0,21.7,31.3,19.1,15.0,89,75,68,29.93,29.59,29,10,29,0.00
2013-3-20,27.2,23.5,16.3,18.6,15.5,10.6,82,71,59,29.94,29.88,23,8,23,0.00
2013-3-21,31.5,23.1,14.3,23.7,17.9,11.1,88,81,68,29.94,29.86,21,7,21,0.00
2013-3-22,40.7,30.6,25.2,24.8,21.5,18.2,82,69,50,30.00,29.92,17,6,17,0.00
2013-3-23,38.9,28.9,20.8,26.2,22.7,18.6,92,78,58,30.08,29.99,12,2,13,0.00
2013-3-24,36.2,29.6,21.6,28.4,23.5,19.5,93,78,58,30.00,29.60,22,6,23,0.00
2013-3-25,38.6,33.5,29.3,30.1,26.9,24.2,88,77,64,29.89,29.52,20,8,21,0.00
2013-3-26,42.0,35.4,31.7,31.5,28.9,25.9,89,77,57,30.10,29.89,16,5,16,0.00
2013-3-27,44.4,37.2,30.0,30.8,27.1,23.8,88,68,49,30.19,30.09,21,7,21,0.00
2013-3-28,51.5,39.9,30.0,28.9,26.0,23.1,78,59,39,30.24,30.18,19,5,19,0.00
2013-3-29,51.9,39.2,27.3,30.8,24.1,20.8,84,58,31,30.26,30.16,14,2,14,0.00
2013-3-30,54.9,41.1,25.7,33.0,26.1,19.7,90,59,31,30.19,29.89,18,3,18,0.00
2013-3-31,58.3,46.5,38.0,43.3,35.1,28.6,90,66,38,29.89,29.58,25,6,25,0.06
2013-4-1,39.8,32.1,25.0,29.5,17.6,11.3,83,56,37,30.08,29.67,25,8,25,0.00
2013-4-2,40.9,30.6,22.1,19.5,15.4,12.3,84,55,34,30.23,30.07,23,6,25,0.00
2013-4-3,42.6,32.4,24.0,20.5,15.4,12.4,77,51,31,30.40,30.23,18,4,19,0.00
2013-4-4,55.3,40.5,28.0,28.2,18.8,15.4,61,44,24,30.33,29.92,17,4,17,0.00
2013-4-5,48.3,41.3,33.7,30.8,23.1,15.7,84,50,30,30.15,29.90,18,4,18,0.00
2013-4-6,55.7,42.4,30.8,27.5,24.1,18.2,77,52,29,30.21,29.73,24,7,24,0.00
2013-4-7,58.9,51.9,40.5,46.1,38.0,27.6,78,60,37,29.96,29.57,31,8,31,0.00
2013-4-8,68.2,46.6,36.4,56.9,40.9,31.9,93,81,61,29.97,29.65,29,6,29,0.18
2013-4-9,56.7,47.8,42.0,48.4,43.8,39.7,95,86,73,30.03,29.82,16,4,17,0.00
2013-4-10,47.3,43.2,39.9,44.8,41.6,38.6,96,94,91,29.93,29.78,17,5,19,0.21
2013-4-11,39.9,37.9,36.5,38.6,36.6,35.2,96,95,94,29.92,29.58,27,10,27,1.29
2013-4-12,41.2,38.5,35.8,38.9,35.5,32.5,96,89,76,29.75,29.50,20,5,20,0.33
2013-4-13,40.9,38.1,35.1,37.4,31.7,27.6,93,78,64,29.95,29.75,23,6,24,0.06
2013-4-14,48.6,40.2,34.5,38.0,32.6,29.0,86,74,64,30.07,29.88,18,4,18,0.00
2013-4-15,66.5,54.1,38.5,55.1,46.4,34.7,90,76,62,29.92,29.82,22,5,24,0.01
2013-4-16,61.6,52.9,45.8,54.0,42.8,31.6,95,71,38,30.17,29.79,18,5,18,0.37
2013-4-17,56.1,46.9,40.4,43.8,37.6,31.6,92,71,52,30.27,29.97,23,6,23,0.53
2013-4-18,75.0,57.4,43.1,65.4,54.1,40.9,95,89,71,29.99,29.50,31,7,34,0.93
2013-4-19,57.9,43.7,36.4,56.8,38.7,29.8,96,83,69,29.72,29.28,34,9,34,0.22
2013-4-20,39.9,33.9,28.2,31.6,23.9,19.0,93,68,49,30.41,29.72,28,7,28,0.30
2013-4-21,45.4,35.3,21.5,31.3,25.5,19.5,94,69,41,30.58,30.41,17,4,18,0.07
2013-4-22,60.4,46.1,30.7,38.7,32.6,27.7,95,64,33,30.43,30.14,15,4,15,0.00
2013-4-23,69.3,54.2,37.5,53.7,43.7,34.0,95,70,44,30.14,29.73,22,5,26,0.17
2013-4-24,54.1,39.5,33.8,53.0,35.6,26.3,96,86,62,30.11,29.68,20,6,20,0.19
2013-4-25,50.7,41.2,34.8,40.2,32.0,27.1,89,71,44,30.32,30.08,27,5,27,0.03
2013-4-26,58.7,45.5,29.8,38.8,33.6,27.7,93,66,43,30.42,30.30,18,3,18,0.05
2013-4-27,68.1,52.9,35.1,42.2,37.4,33.0,94,60,31,30.32,30.05,16,3,16,0.03
2013-4-28,53.8,51.4,48.0,52.7,46.1,35.0,97,83,54,30.05,29.77,12,2,12,0.15
2013-4-29,69.5,59.7,51.5,56.8,53.3,50.7,97,81,58,29.88,29.78,11,3,11,0.09
2013-4-30,73.5,62.5,52.9,57.5,54.3,50.9,93,76,55,29.99,29.86,23,5,23,0.00
2013-5-1,81.5,67.1,50.1,59.9,55.3,47.9,95,68,44,30.16,29.98,16,4,18,0.00
2013-5-2,77.7,65.4,55.0,58.1,51.9,45.0,84,63,42,30.16,30.05,20,4,20,0.00
2013-5-3,76.0,65.5,55.3,59.9,48.1,36.8,78,56,28,30.06,29.96,23,5,24,0.00
2013-5-4,68.8,61.7,53.6,50.1,43.4,34.7,80,53,32,30.04,29.97,23,6,23,0.00
2013-5-5,71.3,60.2,49.0,48.4,41.2,28.1,81,52,21,30.03,29.95,21,4,21,0.00
2013-5-6,73.7,59.0,42.3,51.9,44.3,38.7,88,60,36,30.00,29.90,17,3,17,0.00
2013-5-7,74.3,61.3,46.2,56.3,50.2,43.9,94,69,46,29.99,29.92,17,3,18,0.00
2013-5-8,79.2,63.6,47.7,55.6,50.6,45.8,96,67,33,29.96,29.86,15,2,15,0.00
2013-5-9,80.5,66.7,49.6,56.8,51.1,44.0,96,62,29,29.90,29.82,15,2,15,0.00
2013-5-10,70.0,57.9,43.0,60.6,53.5,40.4,95,86,68,29.85,29.68,21,4,21,0.21
2013-5-11,60.4,46.5,38.3,47.6,41.1,33.4,93,83,52,29.87,29.71,25,4,25,0.04
2013-5-12,46.7,40.5,35.0,34.1,30.1,25.3,85,67,50,30.06,29.85,25,8,25,0.00
2013-5-13,55.1,42.3,28.5,33.2,26.0,20.3,90,57,29,30.15,30.06,17,3,18,0.00
2013-5-14,78.3,59.3,39.7,58.6,44.0,31.4,83,59,42,30.06,29.65,22,4,22,0.00
2013-5-15,81.2,72.8,60.0,60.2,51.9,39.9,80,51,29,29.72,29.53,24,6,25,0.00
2013-5-16,82.8,67.5,47.5,55.6,46.6,40.2,87,51,25,29.93,29.71,17,3,17,0.00
2013-5-17,74.2,62.0,48.9,50.7,44.0,37.0,72,53,37,30.07,29.94,16,5,16,0.00
2013-5-18,78.4,64.3,49.6,56.4,46.6,36.4,77,54,39,30.07,29.97,15,4,17,0.00
2013-5-19,85.9,68.9,50.3,65.1,56.6,45.3,89,66,45,29.98,29.81,13,2,13,0.00
2013-5-20,88.2,75.6,60.6,70.5,64.7,58.5,95,71,46,29.84,29.69,22,4,22,0.00
2013-5-21,83.8,75.3,66.1,67.7,63.2,59.4,89,68,48,29.74,29.62,17,4,17,0.00
2013-5-22,79.7,68.0,61.5,65.2,62.1,59.0,92,82,52,29.67,29.55,25,4,25,0.12
2013-5-23,63.7,54.3,44.8,59.4,51.8,41.9,96,91,82,30.10,29.63,20,4,22,0.04
2013-5-24,57.3,46.3,36.6,41.9,38.6,34.8,94,76,51,30.31,30.09,15,3,16,0.01
2013-5-25,64.3,50.5,34.9,41.8,37.6,33.1,96,66,35,30.36,30.23,13,2,13,0.00
2013-5-26,70.0,54.3,35.0,47.2,37.7,32.2,96,60,29,30.31,30.16,10,1,10,0.00
2013-5-27,55.4,50.6,46.8,51.4,43.8,34.6,96,79,59,30.21,29.94,20,4,20,0.00
2013-5-28,77.6,64.6,52.5,70.2,61.0,51.4,97,89,74,29.94,29.75,17,4,17,0.01
2013-5-29,80.5,74.1,68.2,68.9,65.1,62.0,90,74,58,29.91,29.73,20,4,20,0.67
2013-5-30,86.8,75.4,63.9,73.1,66.2,61.5,93,74,52,29.98,29.86,22,3,22,0.01
2013-5-31,77.8,71.5,67.8,69.1,66.9,65.2,95,86,73,29.92,29.78,19,4,20,0.20
2013-6-1,76.8,68.8,62.8,67.7,63.8,61.2,95,85,67,29.79,29.62,18,4,18,0.26
2013-6-2,69.1,63.7,53.1,64.1,56.9,46.1,91,79,69,29.92,29.59,22,5,22,0.01
2013-6-3,66.5,54.4,38.4,47.2,42.1,36.3,94,66,40,30.04,29.92,14,2,14,0.00
2013-6-4,71.3,58.3,43.1,51.6,46.8,41.8,96,69,39,30.14,30.04,11,2,11,0.00
2013-6-5,72.4,60.7,48.5,51.5,45.1,37.1,88,58,37,30.11,29.92,16,3,16,0.00
2013-6-6,69.9,59.7,50.7,57.0,50.3,44.3,89,72,59,29.93,29.78,15,3,15,0.00
2013-6-7,60.9,54.4,48.3,54.3,50.5,46.1,95,87,77,29.86,29.80,13,2,13,0.00
2013-6-8,72.5,61.2,48.7,57.1,52.5,47.3,97,75,50,30.00,29.86,9,1,11,0.00
2013-6-9,75.4,66.6,56.8,62.9,58.3,53.5,93,76,58,30.03,29.87,22,4,22,0.01
2013-6-10,73.7,65.8,62.0,67.6,63.2,58.2,96,92,76,29.87,29.66,13,2,13,0.77
2013-6-11,80.5,70.8,64.1,67.8,64.2,62.0,96,81,60,29.84,29.70,16,4,16,0.01
2013-6-12,78.5,69.9,60.4,71.8,65.2,59.1,97,86,72,29.85,29.55,15,2,15,0.07
2013-6-13,77.5,67.7,61.1,65.8,59.7,54.5,95,78,49,29.86,29.43,17,4,17,1.34
2013-6-14,76.0,65.6,55.7,59.7,56.4,52.0,94,75,45,30.01,29.86,13,2,13,0.00
2013-6-15,76.8,66.3,55.2,63.8,59.4,53.0,95,80,57,30.02,29.85,15,2,17,0.01
2013-6-16,80.2,70.8,59.8,67.9,62.4,51.4,94,76,43,29.86,29.72,21,5,21,0.26
2013-6-17,84.8,72.4,56.8,68.0,59.1,54.2,94,66,37,29.88,29.76,15,2,15,0.29
2013-6-18,70.5,63.9,54.9,61.2,54.8,43.3,95,74,49,30.00,29.80,13,4,13,0.01
2013-6-19,74.1,60.2,41.2,55.1,49.0,39.6,96,69,43,30.11,30.00,11,1,11,0.00
2013-6-20,81.3,66.8,48.4,60.7,54.3,46.8,95,67,42,30.15,30.07,11,2,11,0.00
2013-6-21,84.5,72.3,57.5,66.4,60.0,54.9,95,68,45,30.13,29.96,14,2,15,0.00
2013-6-22,85.4,75.4,66.1,75.2,67.4,58.4,86,76,69,30.02,29.90,17,2,17,0.00
2013-6-23,87.5,77.9,67.0,72.5,67.9,64.0,93,73,52,30.00,29.89,15,3,16,0.00
2013-6-24,85.7,76.7,65.5,72.5,68.0,62.7,93,76,59,29.99,29.83,16,3,16,0.20
2013-6-25,82.6,72.7,66.1,74.4,68.4,63.7,95,87,72,29.95,29.74,18,3,18,1.25
2013-6-26,81.5,71.8,64.3,72.1,67.2,62.6,96,86,68,29.84,29.66,16,2,19,0.45
2013-6-27,82.1,71.2,64.7,73.3,68.0,63.2,97,90,69,29.70,29.56,21,2,21,1.02
2013-6-28,79.2,67.6,62.5,67.9,63.5,58.1,97,88,58,29.56,29.44,23,3,23,0.56
2013-6-29,70.8,64.8,60.9,66.7,62.6,59.7,97,93,80,29.67,29.48,11,1,11,0.82
2013-6-30,77.3,67.4,59.6,64.7,60.1,56.5,96,79,50,29.87,29.66,16,3,16,0.01
2013-7-1,66.8,62.3,57.3,59.9,55.1,48.0,91,77,65,30.00,29.86,15,4,15,0.03
2013-7-2,72.3,64.8,58.6,65.2,59.9,55.0,92,84,76,30.00,29.95,11,3,11,0.00
2013-7-3,80.7,70.0,61.6,69.1,64.5,59.7,97,84,63,30.04,29.96,18,2,18,0.21
2013-7-4,78.3,70.0,62.7,66.9,63.9,61.3,97,82,59,30.07,30.00,10,1,10,0.00
2013-7-5,81.5,72.5,65.3,70.4,67.0,62.9,95,84,57,30.04,29.97,8,1,8,0.04
2013-7-6,80.7,73.0,66.2,71.8,68.4,64.6,96,86,69,30.04,29.91,10,1,10,0.00
2013-7-7,79.5,72.2,67.7,71.1,68.1,65.3,95,87,72,29.97,29.89,12,2,13,0.09
2013-7-8,82.4,73.9,67.5,75.5,69.5,65.1,96,87,73,29.97,29.89,16,2,16,0.06
2013-7-9,85.5,75.1,70.2,76.8,71.3,69.0,96,89,69,29.91,29.80,17,2,18,0.10
2013-7-10,84.3,75.9,62.4,77.7,70.7,59.2,95,85,60,29.87,29.70,21,3,22,0.48
2013-7-11,77.3,67.6,56.7,62.9,58.1,54.9,94,73,52,29.99,29.87,14,2,14,0.00
2013-7-12,79.8,66.3,51.8,66.1,58.9,50.6,97,79,51,30.09,29.99,11,2,12,0.00
2013-7-13,80.8,70.1,56.8,67.2,62.5,55.6,97,79,56,30.14,30.07,13,2,14,0.00
2013-7-14,86.3,75.5,62.3,73.2,68.6,60.7,96,80,61,30.17,30.13,13,2,13,0.00
2013-7-15,89.7,78.4,67.4,78.4,72.8,66.1,97,84,65,30.22,30.13,10,1,10,0.00
2013-7-16,89.9,81.6,74.2,76.9,74.0,71.2,96,79,59,30.24,30.16,11,2,11,0.00
2013-7-17,89.1,80.3,71.9,79.3,74.1,69.4,94,82,63,30.21,30.07,14,2,15,0.00
2013-7-18,90.8,80.8,70.4,77.7,73.9,68.9,96,81,59,30.09,29.88,14,2,14,0.00
2013-7-19,91.3,83.6,77.1,76.6,74.0,72.2,87,74,56,29.90,29.65,21,5,23,0.00
2013-7-20,84.3,75.8,64.9,74.8,68.0,62.2,96,79,50,29.84,29.64,26,2,26,0.60
2013-7-21,82.0,71.4,61.3,69.5,63.4,59.0,96,78,52,29.93,29.84,7,1,8,0.00
2013-7-22,79.7,71.8,66.3,69.2,66.8,64.6,95,85,64,29.87,29.69,12,1,12,0.08
2013-7-23,82.7,70.7,58.0,71.8,65.4,51.1,96,84,65,29.82,29.60,17,3,25,0.35
2013-7-24,71.2,61.2,50.7,58.7,52.7,47.6,93,75,54,29.99,29.82,14,2,14,0.00
2013-7-25,75.7,62.7,47.3,60.0,53.4,46.1,97,74,47,30.06,29.98,8,1,8,0.00
2013-7-26,76.9,66.8,53.3,63.8,58.7,51.6,96,76,56,30.04,29.84,15,2,15,0.02
2013-7-27,75.1,65.4,54.4,69.0,61.5,51.2,95,88,65,29.85,29.66,19,3,19,0.08
2013-7-28,64.5,57.4,51.2,55.7,51.9,48.6,91,82,67,29.94,29.77,14,3,16,0.01
2013-7-29,69.0,60.5,52.9,58.8,54.5,50.9,95,81,62,30.13,29.93,16,2,16,0.00
2013-7-30,77.3,63.5,47.1,63.6,56.8,46.0,97,81,56,30.19,30.06,8,1,8,0.00
2013-7-31,74.3,67.4,63.1,68.2,64.6,61.4,95,91,75,30.06,29.83,11,1,11,0.19
2013-8-1,77.7,68.1,58.9,66.6,61.0,54.0,96,80,50,29.86,29.81,16,4,17,0.01
2013-8-2,72.1,63.6,52.3,66.4,59.1,50.6,96,86,75,29.88,29.78,17,2,17,0.00
2013-8-3,77.3,68.0,56.9,64.2,58.7,51.9,97,75,44,29.98,29.84,16,2,16,0.00
2013-8-4,73.5,62.4,51.4,59.8,54.9,50.0,96,78,52,30.10,29.98,14,1,15,0.00
2013-8-5,69.7,61.9,49.2,61.4,55.5,47.8,97,81,58,30.06,29.90,6,0,6,0.00
2013-8-6,77.5,68.5,61.5,70.6,63.9,58.2,95,86,71,29.91,29.82,9,2,12,0.10
2013-8-7,82.3,71.1,63.6,73.2,67.8,62.4,97,90,70,29.86,29.76,11,1,11,0.24
2013-8-8,76.1,69.4,64.9,69.7,64.2,59.3,96,84,70,29.94,29.82,12,2,12,0.00
2013-8-9,78.7,68.9,58.9,64.3,59.6,54.6,96,74,49,29.95,29.88,12,2,12,0.00
2013-8-10,77.7,67.2,58.7,64.5,60.6,57.0,96,81,56,30.06,29.95,8,1,9,0.00
2013-8-11,78.1,66.7,52.8,63.0,58.6,51.7,97,77,51,30.06,29.97,13,2,13,0.00
2013-8-12,74.4,65.6,60.8,69.8,63.3,58.4,96,92,82,30.00,29.77,15,1,17,1.15
2013-8-13,66.7,60.9,51.0,64.1,53.5,46.6,97,78,56,30.01,29.77,18,3,20,0.37
2013-8-14,68.8,57.3,47.3,54.8,49.4,44.6,95,76,51,30.13,30.01,15,2,15,0.03
2013-8-15,72.6,59.2,45.1,58.1,51.5,44.0,97,78,51,30.13,30.04,9,1,10,0.00
2013-8-16,77.2,63.8,51.3,61.8,54.8,50.1,97,76,45,30.14,30.07,10,1,10,0.00
2013-8-17,76.6,64.0,49.3,60.7,55.6,48.2,97,77,48,30.21,30.12,13,2,13,0.00
2013-8-18,79.7,66.1,52.8,66.1,58.1,51.6,97,78,45,30.16,30.05,9,1,9,0.00
2013-8-19,80.5,67.3,53.7,66.5,59.2,52.6,97,78,49,30.06,29.97,11,1,11,0.00
2013-8-20,84.1,70.6,56.6,71.7,63.9,55.5,97,81,56,30.08,30.01,10,1,10,0.00
2013-8-21,84.0,73.5,60.9,72.5,67.0,59.4,97,81,59,30.06,29.92,17,2,17,0.01
2013-8-22,77.0,71.3,66.3,69.9,67.3,64.6,96,88,75,29.98,29.89,18,2,18,0.15
2013-8-23,79.1,69.0,57.3,66.3,58.2,47.1,96,73,33,30.13,29.97,12,2,12,0.01
2013-8-24,80.0,66.3,50.8,66.2,57.6,49.7,97,76,48,30.25,30.13,10,1,10,0.00
2013-8-25,84.5,69.8,52.4,67.4,60.9,51.2,97,76,52,30.24,30.09,11,2,12,0.00
2013-8-26,85.0,76.6,69.7,73.4,67.5,61.4,91,74,64,30.11,29.90,15,3,17,0.00
2013-8-27,85.1,76.3,70.1,78.5,72.5,68.0,95,88,77,29.94,29.75,14,2,15,0.28
2013-8-28,80.8,75.0,67.7,74.4,71.9,66.2,97,90,79,29.93,29.71,16,2,16,0.65
2013-8-29,85.0,73.0,62.0,73.8,67.9,61.1,97,85,62,30.00,29.92,8,1,8,0.01
2013-8-30,86.1,74.6,60.0,72.6,67.6,59.0,97,80,60,29.93,29.67,13,2,13,0.02
2013-8-31,81.3,74.0,69.1,72.3,68.9,65.8,96,85,63,29.76,29.67,10,1,11,0.07
2013-9-1,82.0,73.5,67.4,72.3,68.7,64.9,93,85,69,29.76,29.64,9,2,10,0.00
2013-9-2,74.8,68.7,59.3,70.1,62.0,51.5,95,80,62,29.86,29.66,19,3,19,0.00
2013-9-3,73.5,62.5,56.4,58.7,54.6,50.8,94,76,56,29.97,29.85,14,2,16,0.00
2013-9-4,78.1,64.7,49.5,63.6,57.5,48.4,97,79,58,30.04,29.96,14,3,16,0.01
2013-9-5,70.1,60.8,50.1,60.5,51.4,44.9,93,74,44,30.20,30.02,11,2,11,0.00
2013-9-6,75.8,59.5,43.3,58.7,50.8,42.2,97,76,44,30.23,30.02,9,1,9,0.00
2013-9-7,79.8,67.9,54.2,69.0,60.9,48.8,95,79,62,30.02,29.83,14,1,14,0.00
2013-9-8,74.0,67.7,57.6,65.8,61.2,52.1,94,80,61,30.00,29.86,14,3,14,0.00
2013-9-9,79.2,64.7,52.2,72.4,61.5,49.8,97,90,76,30.00,29.83,8,1,10,0.88
2013-9-10,91.3,80.8,68.9,74.7,70.6,65.9,96,73,51,29.93,29.83,15,2,16,0.00
2013-9-11,89.8,78.1,67.8,75.4,69.8,65.8,95,77,57,29.95,29.83,23,3,25,0.09
2013-9-12,77.0,68.3,55.2,67.1,61.3,48.9,96,80,50,29.90,29.77,16,2,16,0.01
2013-9-13,59.5,52.4,40.1,49.0,45.2,38.5,94,77,58,30.09,29.90,15,2,15,0.00
2013-9-14,66.7,46.9,35.6,46.6,40.0,34.6,97,80,45,30.16,30.08,9,1,9,0.00
2013-9-15,64.4,53.2,42.1,56.6,49.2,40.5,97,87,64,30.08,30.00,8,1,8,0.15
2013-9-16,61.4,54.7,44.4,53.8,50.2,42.3,97,86,62,30.32,30.08,15,2,15,0.01
2013-9-17,65.8,50.1,34.4,53.0,44.3,33.4,97,82,54,30.36,30.17,10,2,13,0.00
2013-9-18,74.5,58.4,43.8,59.4,51.9,42.4,97,81,48,30.17,29.98,11,1,11,0.00
2013-9-19,78.0,65.8,55.5,69.3,62.4,54.1,97,90,73,29.99,29.85,12,2,12,0.00
2013-9-20,78.6,70.6,64.5,71.6,67.4,63.0,96,90,73,29.85,29.66,15,3,15,0.35
2013-9-21,66.0,61.0,54.4,63.9,54.9,48.0,96,81,58,29.81,29.61,18,3,18,0.01
2013-9-22,57.7,51.8,40.9,48.4,43.9,39.3,94,75,62,30.03,29.81,18,2,18,0.00
2013-9-23,61.6,48.6,37.5,48.5,43.4,36.3,97,84,59,30.15,30.03,10,1,10,0.00
2013-9-24,65.7,50.3,35.8,53.0,45.1,34.8,97,84,58,30.11,29.95,12,1,12,0.00
2013-9-25,68.8,52.9,40.6,57.0,48.4,39.5,97,86,62,29.97,29.90,11,1,12,0.01
2013-9-26,74.9,56.0,39.5,56.8,47.8,38.4,97,78,42,30.09,29.95,11,1,11,0.01
2013-9-27,74.0,57.1,41.3,60.6,51.2,40.2,97,83,56,30.18,30.09,15,2,16,0.00
2013-9-28,77.1,61.5,46.5,59.9,54.1,45.0,97,80,45,30.14,29.95,14,2,14,0.01
2013-9-29,62.5,59.9,56.5,61.0,57.2,53.1,96,91,80,29.96,29.90,8,1,8,0.31
2013-9-30,69.7,59.7,51.1,58.0,55.1,49.4,98,86,62,29.96,29.87,12,1,13,0.00
2013-10-1,68.5,59.9,47.7,63.1,57.2,46.6,98,91,79,29.97,29.89,16,2,16,0.01
2013-10-2,78.7,66.2,53.2,61.4,56.4,48.3,96,75,38,30.02,29.90,9,1,10,0.00
2013-10-3,74.1,63.7,52.4,68.7,60.7,50.4,97,90,80,29.99,29.87,12,1,14,0.01
2013-10-4,77.7,69.8,65.9,70.2,65.4,62.6,92,86,76,29.95,29.87,9,1,9,0.02
2013-10-5,73.0,68.2,64.0,69.6,66.1,62.5,97,93,85,29.95,29.78,9,2,9,0.05
2013-10-6,68.9,64.0,54.0,67.4,62.0,52.6,96,93,86,29.78,29.57,22,4,22,0.49
2013-10-7,58.2,50.6,43.3,52.8,46.1,40.7,96,85,70,30.08,29.63,22,4,22,0.02
2013-10-8,67.6,52.0,37.2,51.9,44.2,36.2,98,78,48,30.24,30.08,13,1,13,0.00
2013-10-9,68.6,51.8,36.7,53.6,44.0,35.7,98,78,43,30.27,30.17,13,1,13,0.01
2013-10-10,71.7,52.8,37.5,55.7,43.5,36.5,98,75,38,30.18,30.08,9,1,9,0.00
2013-10-11,73.0,53.6,36.5,56.9,46.6,35.5,97,80,49,30.11,30.01,10,1,10,0.01
2013-10-12,77.1,59.0,43.4,60.4,50.8,42.1,97,78,39,30.05,29.97,13,1,13,0.00
2013-10-13,66.3,57.5,42.5,59.0,47.9,39.8,96,73,42,30.30,30.02,14,2,14,0.00
2013-10-14,63.4,49.3,39.1,46.7,42.5,37.6,96,80,51,30.36,30.22,10,1,12,0.01
2013-10-15,62.4,51.5,37.2,60.8,49.3,35.8,97,92,83,30.22,29.80,13,2,13,0.06
2013-10-16,62.3,54.8,50.4,60.5,50.1,44.8,95,84,70,29.86,29.75,21,4,21,0.00
2013-10-17,50.7,48.5,43.3,48.3,46.0,41.7,97,91,85,29.85,29.71,14,2,14,0.18
2013-10-18,61.4,49.5,38.2,47.6,42.9,36.9,96,80,50,29.87,29.81,16,3,17,0.02
2013-10-19,47.1,42.8,35.1,42.9,39.7,33.5,95,89,76,29.87,29.72,17,2,17,0.14
2013-10-20,59.2,48.6,39.1,44.2,40.2,36.1,90,74,49,29.88,29.79,20,3,20,0.01
2013-10-21,54.8,49.0,39.6,48.1,43.1,35.1,90,80,67,29.82,29.75,16,4,16,0.03
2013-10-22,49.1,40.2,32.9,36.0,31.8,28.1,88,72,52,29.89,29.81,19,4,19,0.00
2013-10-23,45.7,36.7,30.2,36.3,32.0,27.8,96,84,51,29.91,29.79,15,3,15,0.01
2013-10-24,45.1,36.6,31.2,34.6,31.6,28.4,94,83,56,30.16,29.90,18,4,18,0.00
2013-10-25,45.1,38.0,31.4,36.5,31.8,28.4,95,79,60,30.31,30.08,16,4,16,0.01
2013-10-26,48.3,42.9,38.5,40.4,32.7,28.8,86,68,59,30.08,29.76,16,6,21,0.05
2013-10-27,53.2,40.9,28.3,37.0,32.3,26.2,95,73,46,30.04,29.95,15,1,15,0.01
2013-10-28,50.9,41.6,28.5,41.9,35.0,26.4,95,78,64,30.34,29.99,13,2,13,0.00
2013-10-29,52.3,42.0,31.4,41.9,36.1,29.0,93,80,66,30.40,30.20,9,1,9,0.00
2013-10-30,62.5,47.5,31.1,53.4,41.3,29.8,97,81,53,30.20,29.90,11,2,12,0.23
2013-10-31,62.7,59.5,54.8,61.1,57.9,53.4,97,95,92,29.92,29.14,22,6,27,1.16
2013-11-1,60.6,47.8,44.5,58.9,44.1,40.1,94,87,78,29.62,29.09,12,6,27,0.06
2013-11-2,47.5,43.7,35.9,43.6,40.9,33.2,96,90,75,30.06,29.61,12,3,15,0.11
2013-11-3,45.2,36.4,28.6,36.6,32.2,27.2,96,85,66,30.40,30.06,11,2,12,0.00
2013-11-4,48.2,39.5,30.4,36.3,31.6,27.2,95,75,45,30.43,30.26,16,4,17,0.00
2013-11-5,53.2,48.4,42.1,48.6,43.9,35.9,92,84,78,30.32,30.11,11,3,11,0.00
2013-11-6,55.4,51.4,42.0,52.2,46.7,38.4,93,84,69,30.12,29.73,26,7,28,0.11
2013-11-7,44.4,39.6,33.5,38.5,31.9,26.3,90,75,57,30.11,29.94,26,6,27,0.00
2013-11-8,43.7,36.4,31.4,31.3,29.4,25.7,91,76,55,30.26,30.10,14,3,14,0.00
2013-11-9,55.9,47.4,36.5,43.1,37.0,30.6,82,68,59,30.14,29.77,24,8,26,0.00
2013-11-10,48.1,42.1,34.5,39.4,31.5,28.5,85,66,56,30.23,29.87,28,7,28,0.00
2013-11-11,44.8,36.4,26.3,38.3,31.9,21.9,94,84,68,30.29,30.00,16,4,17,0.15
2013-11-12,33.7,26.6,21.0,24.6,20.0,17.4,90,77,59,30.53,30.29,18,4,19,0.01
2013-11-13,39.5,29.3,17.9,24.7,19.0,13.5,92,68,35,30.53,30.15,19,4,19,0.00
2013-11-14,51.3,39.5,30.3,27.9,23.6,19.3,69,53,36,30.17,29.96,21,6,21,0.00
2013-11-15,51.4,42.8,36.3,32.4,28.9,24.4,68,58,45,30.02,29.95,13,4,13,0.00
2013-11-16,56.6,46.7,35.7,52.9,42.3,30.9,91,85,68,30.04,29.74,22,6,22,0.01
2013-11-17,62.6,57.0,45.8,59.3,53.8,40.7,95,89,70,29.74,29.19,39,10,39,0.79
2013-11-18,46.4,39.6,33.9,40.6,31.8,24.7,80,73,68,30.11,29.46,31,11,33,0.00
2013-11-19,40.9,33.9,24.5,26.1,24.3,21.5,89,68,48,30.36,30.11,17,3,18,0.00
2013-11-20,42.4,32.9,22.0,32.5,26.5,20.0,95,78,57,30.40,30.20,19,3,21,0.00
2013-11-21,46.7,42.6,38.6,43.3,38.5,30.7,96,86,73,30.25,30.12,17,4,17,0.31
2013-11-22,45.2,39.3,27.6,44.4,36.6,24.2,97,90,77,30.33,30.09,19,4,19,0.03
2013-11-23,29.0,24.2,16.5,25.0,17.3,8.8,90,75,53,30.51,30.25,23,6,24,0.00
2013-11-24,24.3,18.5,12.8,16.4,11.5,7.1,86,74,53,30.60,30.42,17,4,17,0.00
2013-11-25,30.6,25.1,19.1,25.2,16.9,10.8,88,71,55,30.42,30.08,22,5,22,0.00
2013-11-26,34.2,30.7,28.0,28.6,26.7,23.1,92,85,79,30.09,29.91,13,3,14,0.00
2013-11-27,28.0,23.2,17.7,23.7,15.5,11.6,87,72,55,30.19,29.89,22,6,22,0.00
2013-11-28,26.8,23.0,15.2,21.5,17.0,10.8,90,78,66,30.40,30.19,13,2,13,0.00
2013-11-29,34.9,25.2,15.9,23.9,19.4,13.8,94,79,54,30.64,30.40,12,1,13,0.00
2013-11-30,44.7,33.6,26.8,30.7,25.7,21.2,82,73,56,30.52,30.07,16,4,16,0.00
2013-12-1,44.5,34.7,26.9,36.3,29.9,24.4,95,83,68,30.07,29.95,10,2,10,0.00
2013-12-2,38.9,32.1,24.7,31.0,26.8,21.5,95,82,60,29.96,29.84,10,1,10,0.00
2013-12-3,38.0,34.2,27.7,36.4,31.4,23.3,94,90,77,29.87,29.79,15,4,15,0.05
2013-12-4,58.1,46.0,35.1,54.9,44.1,33.5,96,93,89,29.85,29.57,18,4,19,0.02
2013-12-5,57.9,41.1,29.5,55.0,35.2,22.7,91,79,69,30.11,29.56,22,8,24,0.01
2013-12-6,29.6,25.7,20.9,23.4,18.8,13.3,79,75,72,30.38,30.09,15,4,15,0.00
2013-12-7,24.4,18.3,10.6,14.2,11.5,7.8,89,75,59,30.60,30.38,16,3,16,0.00
2013-12-8,28.1,18.7,9.1,26.6,15.3,6.5,94,86,76,30.58,29.97,17,4,17,0.00
2013-12-9,27.7,24.6,17.9,26.0,20.5,12.8,94,84,73,30.09,29.87,22,7,22,0.00
2013-12-10,20.9,16.7,9.1,14.6,9.6,1.9,84,73,54,30.18,29.94,28,6,28,0.00
2013-12-11,23.8,16.8,7.7,18.3,12.1,3.5,88,81,73,30.45,30.18,16,4,16,0.00
2013-12-12,20.0,12.8,3.4,14.8,5.8,-0.2,89,74,48,30.44,30.19,19,5,22,0.00
2013-12-13,29.6,23.4,19.2,22.1,18.2,14.4,85,80,72,30.23,30.14,15,3,15,0.00
2013-12-14,24.1,19.9,18.7,19.7,17.4,15.9,92,90,82,30.22,29.81,19,7,19,0.00
2013-12-15,24.4,19.4,14.0,22.4,16.6,10.9,92,89,81,30.03,29.80,20,5,22,0.06
2013-12-16,23.1,12.9,2.6,16.7,9.2,-0.7,90,85,72,30.17,29.99,9,1,9,0.04
2013-12-17,25.7,21.6,14.0,22.6,19.0,11.6,92,89,84,30.00,29.88,17,4,17,0.01
2013-12-18,30.0,25.6,21.1,24.6,20.3,15.3,93,80,69,30.10,29.88,21,5,22,0.00
2013-12-19,42.6,35.1,27.4,35.9,29.5,18.6,90,80,69,29.96,29.84,16,2,16,0.00
2013-12-20,43.4,37.9,34.7,42.0,36.7,33.7,96,95,91,29.85,29.67,12,1,12,0.17
2013-12-21,38.3,34.1,32.5,37.5,33.1,31.1,97,96,95,29.81,29.60,15,3,15,0.35
2013-12-22,38.0,34.5,32.7,35.1,32.7,31.1,96,93,86,29.92,29.49,20,4,23,0.33
2013-12-23,33.2,27.6,17.9,31.4,23.2,11.6,95,84,69,30.29,29.92,16,6,19,0.00
2013-12-24,20.2,13.8,8.6,12.1,8.6,5.3,90,80,68,30.52,30.28,15,4,16,0.00
2013-12-25,24.1,19.1,6.6,22.1,16.0,3.6,92,87,81,30.50,30.10,17,4,19,0.00
2013-12-26,27.2,25.5,23.8,24.8,21.2,18.2,93,84,71,30.26,30.02,22,5,22,0.00
2013-12-27,39.8,34.2,27.2,32.3,29.0,23.2,86,81,72,30.28,30.06,16,3,18,0.00
2013-12-28,48.0,40.9,35.6,37.5,33.6,30.6,82,75,65,30.08,29.85,18,4,18,0.00
2013-12-29,42.0,34.7,21.7,33.6,28.8,16.4,93,79,71,29.97,29.65,22,4,22,0.00
2013-12-30,21.6,19.1,16.6,16.5,11.7,8.0,82,72,66,30.22,29.97,19,3,22,0.00
2013-12-31,19.7,16.3,13.8,15.3,11.3,9.0,88,80,69,30.27,30.05,16,6,18,0.00
2014-1-1,15.4,13.4,12.2,12.5,10.4,9.1,89,88,85,30.35,30.19,13,4,13,0.07
2014-1-2,14.6,11.2,2.2,12.2,7.8,-3.0,90,86,77,30.28,30.06,24,7,24,0.00